Regional Weather Roundup
Issued by NWS Albany, NY

Home | Current Version | Previous Version | Text Only | Print | Product List | Glossary On
Versions: 1 2 3 4 5 6 7 8 9 10 11 12 13 14 15 16 17 18 19 20 21 22 23 24 25 26 27 28 29 30 31 32 33 34 35 36 37 38 39 40 41 42 43 44 45 46 47 48 49 50
000
ASUS41 KALY 290810
RWRALY

NEW YORK STATE HOURLY WEATHER ROUNDUP
NATIONAL WEATHER SERVICE ALBANY NY
400 AM EDT SAT AUG 29 2015

NOTE: "FAIR" INDICATES FEW OR NO CLOUDS BELOW 12,000 FEET WITH NO
SIGNIFICANT WEATHER AND/OR NO OBSTRUCTIONS TO VISIBILITY.

NYZ032-033-038>043-046>054-057>066-NYZ062>081-290900-
EAST


CITY           SKY/WX    TMP DP  RH WIND       PRES   REMARKS
ALBANY         MOCLDY    56  52  86 CALM      30.19S
GLENS FALLS    CLEAR     53  50  89 CALM      30.18S
POUGHKEEPSIE   CLEAR     56  53  90 CALM      30.19S
NEWBURGH       CLEAR     55  55 100 CALM      30.20F
MONTGOMERY     CLEAR     51  50  96 CALM      30.20S
WHITE PLAINS   CLEAR     60  55  83 NW5       30.18F
ISLIP          CLEAR     62  58  86 CALM      30.17S
NEW YORK CITY  PTCLDY    72  55  55 CALM      30.17F
CENTRAL PARK   CLEAR     69  55  60 NW3       30.21S
$$

NYZ005>009-017-018-044>046-055-056-290900-
CENTRAL


CITY           SKY/WX    TMP DP  RH WIND       PRES   REMARKS
FULTON         PTCLDY    56  53  90 CALM      30.17S
SYRACUSE       MOCLDY    56  54  93 CALM      30.16F
ROME           PTCLDY    52  51  97 SE5       30.19F
ELMIRA         CLOUDY    49  49 100 CALM      30.20R FOG
BINGHAMTON     CLEAR     53  52  96 S3        30.20F
MONTICELLO     CLEAR     50  50 100 CALM      30.23F
$$

NYZ026>034-041>043-290900-
NORTH


CITY           SKY/WX    TMP DP  RH WIND       PRES   REMARKS
WATERTOWN      PTCLDY    52  50  93 N3        30.15S
FORT DRUM      NOT AVBL
MASSENA        CLEAR     52  50  93 CALM      30.16S
SARANAC LAKE   CLEAR     41  39  93 CALM      30.18F
PLATTSBURGH    CLEAR     53  51  93 CALM      30.16R
$$

NYZ001>004-010>016-019>021-290900-
WEST


CITY           SKY/WX    TMP DP  RH WIND       PRES   REMARKS
NIAGARA FALLS  PTCLDY    57  54  89 CALM      30.13F
BUFFALO        PTCLDY    58  54  86 S5        30.15S
DUNKIRK        MOCLDY    53  52  96 CALM      30.15F
JAMESTOWN      PTCLDY    55  54  94 S3        30.19S
WELLSVILLE     PTCLDY    57  53  86 SW6       30.22F
ROCHESTER      MOCLDY    57  55  93 SW5       30.16F
PENN YAN       CLEAR     58  56  93 SW6       30.18F
$$

             KEY
       WCI = WIND CHILL INDEX
       VSB = VISIBILITY
       HX  = HEAT INDEX
$$


USA.gov is the U.S. government's official web portal to all federal, state and local government web resources and services.